[[{"header":{"parameterUnit":"m.s-1","parameterCategory":1,"la1":30.2991,"la2":30.254,"lo1":-89.0895,"lo2":-89.0444,"dy":0.0017,"dx":0.0017,"nx":28,"ny":28,"refTime":"2023-10-24T03:00:00:Z","depth":0,"parameterNumber":2,"parameterNumberName":"U-component_of_WINDS"},"data":[0,0,0,0,0,0,0,0,0,0,0,0,0,0,0,0,0,0,0,0,0,0,0,0,0,0,0,0,0,0,0,0,0,0,0,0,0,0,0,0,0,0,0,0,0,0,0,0,0,0,0,0,0,0,0,0,0,0,-5.4558,-5.4559,0,-5.4627,-5.4628,-5.4629,-5.4528,-5.4524,-5.4521,-5.4517,-5.4591,-5.4597,-5.4602,0,0,0,0,0,0,0,0,0,0,0,0,0,-5.4343,-5.4348,-5.4558,-5.4559,-5.456,-5.4627,-5.4628,-5.4629,-5.4528,-5.4524,-5.452,-5.4516,-5.459,-5.4596,-5.4602,0,0,0,0,0,0,0,0,0,0,0,0,0,-5.4427,-5.4349,-5.4558,-5.4518,-5.4515,-5.4627,-5.4628,-5.4629,-5.4529,-5.4524,-5.4519,-5.4514,-5.4588,-5.4595,-5.4603,-5.4759,0,0,-5.4627,-5.4631,0,0,0,0,0,0,0,0,-5.4422,-5.4435,-5.4523,-5.4521,-5.4518,-5.4563,-5.4579,-5.4673,-5.4531,-5.4524,-5.4517,-5.4511,-5.4587,-5.4594,-5.4619,-5.4763,-5.4766,-5.4628,-5.4633,-5.4636,-5.4639,0,0,0,0,0,0,0,-5.4417,-5.4431,-5.4585,-5.4524,-5.4521,-5.4497,-5.4503,-5.4597,-5.4585,-5.4524,-5.4517,-5.4526,-5.4584,-5.4612,-5.462,-5.4767,-5.4628,-5.4635,-5.464,-5.4643,-5.5042,-5.5048,0,0,0,0,0,0,-5.4415,-5.4427,-5.4583,-5.4588,-5.4456,-5.4506,-5.4512,-5.4554,-5.4583,-5.4582,-5.4531,-5.4521,-5.4601,-5.4611,-5.4622,-5.4806,-5.4636,-5.4644,-5.4648,-5.5036,-5.5043,-5.505,0,0,0,0,0,0,-5.4411,-5.443,-5.458,-5.4506,-5.4523,-5.4515,-5.4563,-5.4558,-5.4585,-5.4588,-5.4586,-5.4561,-5.4597,-5.4611,-5.4726,-5.4807,-5.4647,-5.4655,-5.503,-5.5039,-5.5047,-5.5175,0,0,0,0,0,0,-5.4405,-5.4429,-5.4487,-5.4508,-5.4527,-5.4682,-5.4568,-5.4563,-5.4599,-5.4587,-5.4616,-5.4615,-5.4594,-5.4714,-5.4734,-5.4815,-5.4661,-5.5022,-5.5034,-5.5044,-5.5164,-5.5187,-5.5208,0,0,0,0,0,-5.4398,-5.4521,-5.4491,-5.451,-5.4599,-5.4687,-5.4698,-5.467,-5.4606,-5.4665,-5.4667,-5.4614,-5.4796,-5.4727,-5.4748,-5.4833,-5.5017,-5.503,-5.5043,-5.5154,-5.5183,-5.5207,0,0,0,0,0,0,-5.4512,-5.4523,-5.4489,-5.4623,-5.4654,-5.4669,-5.4742,-5.4701,-5.4752,-5.4739,-5.4704,-5.4711,-5.4833,-5.4845,-5.4768,-5.4986,-5.4896,-5.4914,-5.4973,-5.5,-5.5022,-5.5016,-5.4667,0,0,0,0,0,-5.4552,-5.4621,-5.4628,-5.4745,-5.4763,-5.4751,-5.4787,-5.4763,-5.4795,-5.4808,-5.4818,-5.4852,-5.4916,-5.4959,-5.5019,-5.5166,-5.5171,-5.5235,-5.5257,-5.5275,-5.529,-5.5369,-5.5397,-5.5093,-5.5093,-5.5093,0,0,-5.4637,-5.4652,-5.4697,-5.4768,-5.479,-5.4863,-5.4762,-5.4843,-5.4897,-5.482,-5.4928,-5.4938,-5.4973,-5.5104,-5.5163,-5.5118,-5.5376,-5.5292,-5.5306,-5.5312,-5.5385,-5.5414,-5.544,-5.5102,-5.51,-5.5099,0,0,-5.4827,-5.4846,-5.4945,-5.4969,-5.5003,-5.4994,-5.5018,-5.504,-5.5042,-5.515,-5.5094,-5.5159,-5.5271,-5.5298,-5.5327,-5.5531,-5.5484,-5.5551,-5.5665,-5.5742,-5.5766,-5.5787,-5.5859,-5.5885,-5.5567,-5.5567,-5.5568,0,-5.4928,-5.5034,-5.5002,-5.5087,-5.512,-5.5054,-5.5154,-5.518,-5.5232,-5.5257,-5.5206,-5.5345,-5.5365,-5.5501,-5.5551,-5.5577,-5.5604,-5.5546,-5.5765,-5.5786,-5.5805,-5.5873,-5.59,-5.5575,-5.5574,-5.5574,-5.5573,0,-5.5156,-5.5231,-5.5307,-5.5358,-5.54,-5.5493,-5.5476,-5.5523,-5.5496,-5.5493,-5.5605,-5.5626,-5.5688,-5.572,-5.5695,-5.5854,-5.5824,-5.5771,-5.5679,-5.5842,-5.5905,-5.5931,-5.5586,-5.5584,-5.5581,-5.5579,0,0,-5.5418,-5.545,-5.5479,-5.5501,-5.5534,-5.5592,-5.5683,-5.5743,-5.5784,-5.5823,-5.5898,-5.5995,-5.5945,-5.5978,-5.5956,-5.6024,-5.6183,-5.5961,-5.5962,-5.6001,-5.6359,-5.6398,-5.6428,-5.6154,-5.6158,-5.6162,-5.6355,0,-5.5607,-5.5761,-5.5735,-5.5885,-5.5954,-5.5893,-5.5972,-5.6002,-5.6003,-5.6062,-5.6064,-5.6132,-5.6062,-5.6081,-5.6146,-5.615,-5.6254,-5.6136,-5.6223,-5.6227,-5.6214,-5.6461,-5.6503,-5.6684,-5.638,-5.6384,-5.6387,0,-5.5847,-5.5893,-5.605,-5.6072,-5.61,-5.6172,-5.6225,-5.6283,-5.6316,-5.6312,-5.635,-5.6315,-5.6407,-5.6317,-5.6443,-5.6363,-5.6398,-5.6406,-5.6412,-5.6417,-5.6315,-5.6472,-5.6741,-5.6767,-5.6426,-5.6423,-5.642,0,-5.602,-5.6123,-5.6229,-5.625,-5.628,-5.6331,-5.6347,-5.6374,-5.6413,-5.646,-5.6485,-5.6544,-5.6575,-5.6622,-5.6605,-5.6541,-5.6736,-5.6643,-5.6735,-5.6735,-5.6776,-5.6773,-5.7053,-5.6803,-5.6802,-5.6802,-5.6801,0,-5.6232,-5.633,-5.6307,-5.6373,-5.6481,-5.6452,-5.6561,-5.6569,-5.6595,-5.6661,-5.6614,-5.6678,-5.6653,-5.6716,-5.6704,-5.681,-5.6826,-5.6825,-5.682,-5.6828,-5.6828,-5.6849,-5.6835,-5.6809,-5.6807,-5.6806,-5.6805,0,-5.6443,-5.6431,-5.6543,-5.6562,-5.657,-5.6649,-5.6665,-5.6728,-5.6725,-5.6811,-5.6829,-5.6826,-5.6898,-5.6887,-5.6967,-5.6959,-5.7091,-5.7072,-5.7079,-5.7074,-5.7165,-5.7156,-5.7466,-5.7505,-5.7232,-5.7234,-5.7237,0,-5.6577,-5.6651,-5.6678,-5.6719,-5.6737,-5.6804,-5.6842,-5.6818,-5.686,-5.6904,-5.6962,-5.7029,-5.7081,-5.72,-5.7206,-5.7267,-5.7248,-5.7353,-5.7257,-5.7263,-5.7248,-5.7243,-5.725,-5.7371,-5.7374,-5.7376,-5.7378,0,-5.6818,-5.6809,-5.6865,-5.692,-5.6967,-5.701,-5.7048,-5.7085,-5.7064,-5.7114,-5.7186,-5.7227,-5.7309,-5.7377,-5.7435,-5.7452,-5.7413,-5.7409,-5.7433,-5.7441,-5.7441,-5.744,-5.7129,-5.7401,-5.7399,-5.7397,-5.7396,-5.7395,-5.6993,-5.7056,-5.7084,-5.7149,-5.7175,-5.7212,-5.7271,-5.7276,-5.7336,-5.7399,-5.7382,-5.7464,-5.7497,-5.7571,-5.7595,-5.7659,-5.7621,-5.7656,-5.7665,-5.7673,-5.7684,-5.7433,-5.767,-5.767,-5.7669,-5.7668,-5.7668,0,-5.723,-5.7245,-5.7305,-5.7359,-5.7411,-5.7369,-5.7409,-5.7455,-5.7528,-5.7561,-5.7614,-5.7698,-5.7764,-5.7776,-5.7839,-5.7889,-5.7872,-5.7906,-5.7901,-5.7905,-5.7715,-5.7687,-5.7918,-5.7918,-5.7918,-5.7918,-5.7918,-5.7918,-5.7359,-5.7462,-5.7457,-5.7573,-5.7588,-5.7667,-5.7694,-5.7728,-5.7755,-5.785,-5.7904,-5.7911,-5.7936,-5.8001,-5.806,-5.8062,-5.8087,-5.8128,-5.8122,-5.7944,-5.7919,-5.7895,-5.7868,-5.8134,-5.8134,-5.8307,-5.8309,-5.831]},{"header":{"parameterUnit":"m.s-1","parameterCategory":1,"la1":30.2991,"la2":30.254,"lo1":-89.0895,"lo2":-89.0444,"dy":0.0017,"dx":0.0017,"nx":28,"ny":28,"refTime":"2023-10-24T03:00:00:Z","depth":0,"parameterNumber":3,"parameterNumberName":"V-component_of_WINDS"},"data":[0,0,0,0,0,0,0,0,0,0,0,0,0,0,0,0,0,0,0,0,0,0,0,0,0,0,0,0,0,0,0,0,0,0,0,0,0,0,0,0,0,0,0,0,0,0,0,0,0,0,0,0,0,0,0,0,0,0,2.3397,2.3398,0,2.3474,2.3475,2.3476,2.3441,2.3439,2.3438,2.3436,2.3518,2.3522,2.3526,0,0,0,0,0,0,0,0,0,0,0,0,0,2.3224,2.3228,2.3397,2.3398,2.3399,2.3474,2.3475,2.3476,2.3442,2.3439,2.3437,2.3435,2.3516,2.3521,2.3526,0,0,0,0,0,0,0,0,0,0,0,0,0,2.33,2.3229,2.3396,2.339,2.3391,2.3474,2.3475,2.3476,2.3442,2.3439,2.3436,2.3434,2.3515,2.3521,2.3527,2.3621,0,0,2.3545,2.3547,0,0,0,0,0,0,0,0,2.3296,2.3307,2.339,2.3391,2.3391,2.3445,2.3444,2.3525,2.3443,2.3423,2.3436,2.3432,2.3496,2.3503,2.3524,2.3625,2.3628,2.3545,2.3549,2.3551,2.3553,0,0,0,0,0,0,0,2.3291,2.3303,2.3427,2.3392,2.3392,2.3386,2.3393,2.3459,2.3475,2.3424,2.3422,2.3431,2.3496,2.3519,2.3526,2.3629,2.3545,2.355,2.3554,2.3556,2.3814,2.3817,0,0,0,0,0,0,2.3285,2.3299,2.3425,2.343,2.3336,2.3391,2.34,2.3431,2.3474,2.3478,2.3434,2.343,2.351,2.3519,2.3529,2.3643,2.3551,2.3557,2.356,2.3811,2.3815,2.3818,0,0,0,0,0,0,2.3282,2.3297,2.3422,2.3364,2.3379,2.3397,2.3432,2.3434,2.3456,2.3481,2.3484,2.3454,2.3508,2.352,2.3599,2.3646,2.356,2.3565,2.3807,2.3812,2.3817,2.3873,0,0,0,0,0,0,2.3277,2.3296,2.333,2.3365,2.3382,2.3489,2.3435,2.3437,2.3466,2.3462,2.3501,2.3504,2.3507,2.359,2.3605,2.3652,2.357,2.3803,2.3809,2.3815,2.3867,2.3879,2.3889,0,0,0,0,0,2.3271,2.3343,2.3332,2.3347,2.3426,2.3491,2.3502,2.3502,2.347,2.3506,2.3523,2.3503,2.3638,2.3598,2.3614,2.3665,2.38,2.3807,2.3815,2.3861,2.3876,2.3889,0,0,0,0,0,0,2.3313,2.3347,2.3335,2.342,2.3453,2.3486,2.353,2.3517,2.3561,2.3554,2.3554,2.3563,2.3645,2.3663,2.3617,2.376,2.3714,2.3725,2.3745,2.3759,2.377,2.3764,2.3575,0,0,0,0,0,2.3333,2.3382,2.3409,2.3482,2.3499,2.3512,2.3541,2.3539,2.3573,2.3587,2.3609,2.3644,2.3695,2.3728,2.3776,2.3869,2.3879,2.3912,2.3924,2.3933,2.3942,2.3996,2.4012,2.3843,2.3842,2.3842,0,0,2.3373,2.3397,2.3428,2.3491,2.3516,2.3569,2.3524,2.3581,2.3621,2.3596,2.3671,2.3689,2.3728,2.3816,2.3855,2.3833,2.3991,2.3942,2.3949,2.3954,2.4005,2.4021,2.4035,2.3848,2.3847,2.3846,0,0,2.3473,2.3496,2.356,2.3587,2.3626,2.3634,2.365,2.3685,2.3696,2.3771,2.3754,2.3803,2.3889,2.3919,2.3945,2.4061,2.4045,2.4077,2.4136,2.4188,2.4201,2.4213,2.4256,2.4271,2.4086,2.4086,2.4086,0,2.3518,2.3596,2.3595,2.3654,2.3683,2.3663,2.3729,2.3756,2.3809,2.383,2.3805,2.3915,2.394,2.4035,2.4063,2.4085,2.4104,2.4072,2.4199,2.4211,2.4222,2.4263,2.4279,2.409,2.4089,2.4089,2.4089,0,2.3651,2.3705,2.3753,2.3804,2.3839,2.3901,2.3911,2.3947,2.3943,2.3955,2.4034,2.4064,2.4119,2.4141,2.4137,2.4237,2.4222,2.4198,2.4153,2.4242,2.428,2.4296,2.4095,2.4094,2.4093,2.4092,0,0,2.3778,2.383,2.3847,2.3872,2.3915,2.3957,2.4021,2.4074,2.4105,2.4143,2.4197,2.4273,2.4252,2.4282,2.4282,2.4328,2.442,2.4298,2.4299,2.4321,2.4533,2.4551,2.4569,2.441,2.4413,2.4415,2.453,0,2.3882,2.3991,2.3993,2.4094,2.4146,2.4129,2.4184,2.4218,2.4232,2.428,2.4296,2.435,2.4317,2.4335,2.438,2.4399,2.4462,2.4391,2.4462,2.4465,2.4452,2.4589,2.4608,2.4714,2.4545,2.4548,2.455,0,2.4017,2.406,2.4166,2.4204,2.4226,2.4275,2.4325,2.437,2.441,2.4417,2.4452,2.4446,2.4513,2.4466,2.4559,2.4511,2.4541,2.4555,2.4559,2.4566,2.4512,2.46,2.4748,2.4765,2.4573,2.4571,2.457,0,2.4101,2.4185,2.426,2.4281,2.4327,2.4362,2.4384,2.442,2.4452,2.4497,2.4519,2.4571,2.46,2.4642,2.4651,2.4616,2.4746,2.4699,2.4755,2.4755,2.4782,2.4781,2.4938,2.4801,2.4801,2.4801,2.48,0,2.4217,2.4283,2.4298,2.4344,2.4418,2.4422,2.4496,2.4514,2.4547,2.4598,2.4588,2.4636,2.4645,2.4697,2.4705,2.4782,2.4795,2.4804,2.4805,2.4805,2.4804,2.4825,2.4818,2.4805,2.4804,2.4803,2.4802,0,2.4322,2.4335,2.4416,2.4453,2.4464,2.4518,2.4551,2.4596,2.461,2.4675,2.469,2.4713,2.4773,2.4786,2.4858,2.4863,2.4955,2.4949,2.4942,2.4942,2.4997,2.4992,2.5174,2.5199,2.5045,2.5046,2.5048,0,2.4396,2.4446,2.4489,2.4522,2.4545,2.4598,2.4632,2.4639,2.4675,2.4725,2.4765,2.4824,2.4871,2.4968,2.4992,2.5047,2.5043,2.5103,2.5051,2.505,2.5045,2.5042,2.5048,2.5112,2.5114,2.5115,2.5116,0,2.4525,2.4529,2.4577,2.4629,2.467,2.4711,2.475,2.4778,2.4791,2.4832,2.4893,2.493,2.5004,2.5063,2.5119,2.5143,2.5133,2.5133,2.5149,2.5149,2.5143,2.5149,2.4969,2.5128,2.5127,2.5126,2.5126,2.5125,2.4617,2.4662,2.47,2.4755,2.4786,2.4823,2.4868,2.4888,2.4939,2.4999,2.5001,2.5068,2.5109,2.5183,2.5211,2.5265,2.5246,2.5269,2.5275,2.5281,2.5287,2.5135,2.5275,2.5275,2.5274,2.5274,2.5274,0,2.4747,2.4771,2.4821,2.4877,2.4921,2.4908,2.4951,2.499,2.5049,2.5087,2.5135,2.5206,2.5265,2.5294,2.5352,2.539,2.5388,2.5406,2.5403,2.5409,2.5299,2.528,2.5407,2.5407,2.5407,2.5407,2.5407,2.5407,2.4819,2.4895,2.4904,2.4997,2.5021,2.5086,2.5112,2.5148,2.5179,2.526,2.5308,2.5327,2.5363,2.5424,2.5478,2.5485,2.5508,2.5529,2.5534,2.543,2.5417,2.5404,2.5386,2.5533,2.5533,2.564,2.5641,2.5641]}]]